Time,TemperatureF,DewpointF,PressureIn,WindDirection,WindDirectionDegrees,WindSpeedMPH,WindSpeedGustMPH,Humidity,HourlyPrecipIn,Conditions,Clouds,dailyrainin,SolarRadiationWatts/m^2,SoftwareType,DateUTC
2013-05-04 00:01:00,45.0,45.0,-100.00,North,354,1.0,4.0,100,-99.99,,,0.00,0.000000,,2013-05-04 06:01:00,
2013-05-04 00:11:00,45.0,45.0,-100.00,North,354,1.0,4.0,100,-99.99,,,0.00,0.000000,,2013-05-04 06:11:00,
2013-05-04 00:41:00,44.0,44.0,-100.00,ENE,75,1.0,3.0,99,-99.99,,,0.00,0.000000,,2013-05-04 06:41:00,
2013-05-04 00:52:00,44.0,44.0,-100.00,ENE,75,1.0,3.0,99,-99.99,,,0.00,0.000000,,2013-05-04 06:52:00,
2013-05-04 01:01:00,44.0,44.0,-100.00,ENE,75,1.0,3.0,99,-99.99,,,0.00,0.000000,,2013-05-04 07:01:00,
2013-05-04 01:11:00,44.0,44.0,-100.00,ENE,75,1.0,3.0,99,-99.99,,,0.00,0.000000,,2013-05-04 07:11:00,
2013-05-04 01:41:00,44.0,44.0,-100.00,ENE,65,0.0,2.0,99,-99.99,,,0.00,0.000000,,2013-05-04 07:41:00,
2013-05-04 01:52:00,44.0,44.0,-100.00,ENE,65,0.0,2.0,99,-99.99,,,0.00,0.000000,,2013-05-04 07:52:00,
2013-05-04 02:01:00,44.0,44.0,-100.00,ENE,65,0.0,2.0,99,-99.99,,,0.00,0.000000,,2013-05-04 08:01:00,
2013-05-04 02:11:00,44.0,44.0,-100.00,ENE,65,0.0,2.0,99,-99.99,,,0.00,0.000000,,2013-05-04 08:11:00,
2013-05-04 02:41:00,43.0,43.0,-100.00,North,354,1.0,4.0,100,-99.99,,,0.00,0.120000,,2013-05-04 08:41:00,
2013-05-04 02:52:00,43.0,43.0,-100.00,North,354,1.0,4.0,100,-99.99,,,0.00,0.120000,,2013-05-04 08:52:00,
2013-05-04 03:02:00,43.0,43.0,-100.00,North,354,1.0,4.0,100,-99.99,,,0.00,0.120000,,2013-05-04 09:02:00,
2013-05-04 03:11:00,43.0,43.0,-100.00,North,354,1.0,4.0,100,-99.99,,,0.00,0.120000,,2013-05-04 09:11:00,
2013-05-04 03:42:00,42.0,42.0,-100.00,North,353,0.0,2.0,100,-99.99,,,0.00,0.120000,,2013-05-04 09:42:00,
2013-05-04 03:53:00,42.0,42.0,-100.00,North,353,0.0,2.0,100,-99.99,,,0.00,0.120000,,2013-05-04 09:53:00,
2013-05-04 04:02:00,42.0,42.0,-100.00,North,353,0.0,2.0,100,-99.99,,,0.00,0.120000,,2013-05-04 10:02:00,
2013-05-04 04:12:00,42.0,42.0,-100.00,North,353,0.0,2.0,100,-99.99,,,0.00,0.120000,,2013-05-04 10:12:00,
2013-05-04 04:42:00,42.0,42.0,-100.00,North,359,1.0,3.0,100,-99.99,,,0.00,0.120000,,2013-05-04 10:42:00,
2013-05-04 04:53:00,42.0,42.0,-100.00,North,359,1.0,3.0,100,-99.99,,,0.00,0.120000,,2013-05-04 10:53:00,
2013-05-04 05:02:00,42.0,42.0,-100.00,North,359,1.0,3.0,100,-99.99,,,0.00,0.120000,,2013-05-04 11:02:00,
2013-05-04 05:11:00,42.0,42.0,-100.00,North,359,1.0,3.0,100,-99.99,,,0.00,0.120000,,2013-05-04 11:11:00,
2013-05-04 05:42:00,42.0,42.0,-100.00,NNE,12,0.0,3.0,100,-99.99,,,0.00,0.120000,,2013-05-04 11:42:00,
2013-05-04 06:04:00,42.0,42.0,-100.00,NNE,12,0.0,3.0,100,-99.99,,,0.00,0.120000,,2013-05-04 12:04:00,
2013-05-04 06:12:00,42.0,42.0,-100.00,NNE,12,0.0,3.0,100,-99.99,,,0.00,0.120000,,2013-05-04 12:12:00,
2013-05-04 07:41:00,41.0,41.0,-100.00,NNE,14,1.0,3.0,99,-99.99,,,0.00,43.930000,,2013-05-04 13:41:00,
2013-05-04 07:52:00,41.0,41.0,-100.00,NNE,14,1.0,3.0,99,-99.99,,,0.00,43.930000,,2013-05-04 13:52:00,
2013-05-04 08:02:00,41.0,41.0,-100.00,NNE,14,1.0,3.0,99,-99.99,,,0.00,43.930000,,2013-05-04 14:02:00,
2013-05-04 08:11:00,41.0,41.0,-100.00,NNE,14,1.0,3.0,99,-99.99,,,0.00,43.930000,,2013-05-04 14:11:00,
2013-05-04 08:41:00,43.0,43.0,-100.00,North,4,3.0,6.0,97,-99.99,,,0.00,269.859985,,2013-05-04 14:41:00,
2013-05-04 08:52:00,43.0,43.0,-100.00,North,4,3.0,6.0,97,-99.99,,,0.00,269.859985,,2013-05-04 14:52:00,
2013-05-04 09:01:00,43.0,43.0,-100.00,North,4,3.0,6.0,97,-99.99,,,0.00,269.859985,,2013-05-04 15:01:00,
2013-05-04 09:11:00,43.0,43.0,-100.00,North,4,3.0,6.0,97,-99.99,,,0.00,269.859985,,2013-05-04 15:11:00,
2013-05-04 09:43:00,48.0,44.0,-100.00,North,351,4.0,9.0,85,-99.99,,,0.00,238.720001,,2013-05-04 15:43:00,
2013-05-04 09:53:00,48.0,44.0,-100.00,North,351,4.0,9.0,85,-99.99,,,0.00,238.720001,,2013-05-04 15:53:00,
2013-05-04 10:03:00,48.0,44.0,-100.00,North,351,4.0,9.0,85,-99.99,,,0.00,238.720001,,2013-05-04 16:03:00,
2013-05-04 10:12:00,48.0,44.0,-100.00,North,351,4.0,9.0,85,-99.99,,,0.00,238.720001,,2013-05-04 16:12:00,
2013-05-04 10:42:00,52.0,41.0,-100.00,North,359,4.0,10.0,66,-99.99,,,0.00,486.029999,,2013-05-04 16:42:00,
2013-05-04 10:52:00,52.0,41.0,-100.00,North,359,4.0,10.0,66,-99.99,,,0.00,486.029999,,2013-05-04 16:52:00,
2013-05-04 11:02:00,52.0,41.0,-100.00,North,359,4.0,10.0,66,-99.99,,,0.00,486.029999,,2013-05-04 17:02:00,
2013-05-04 11:12:00,52.0,41.0,-100.00,North,359,4.0,10.0,66,-99.99,,,0.00,486.029999,,2013-05-04 17:12:00,
2013-05-04 11:42:00,58.0,39.0,-100.00,North,355,5.0,12.0,49,-99.99,,,0.00,800.989990,,2013-05-04 17:42:00,
2013-05-04 11:52:00,58.0,39.0,-100.00,North,355,5.0,12.0,49,-99.99,,,0.00,800.989990,,2013-05-04 17:52:00,
2013-05-04 12:01:00,58.0,39.0,-100.00,North,355,5.0,12.0,49,-99.99,,,0.00,800.989990,,2013-05-04 18:01:00,
2013-05-04 12:12:00,58.0,39.0,-100.00,North,355,5.0,12.0,49,-99.99,,,0.00,800.989990,,2013-05-04 18:12:00,
2013-05-04 12:42:00,57.0,37.0,-100.00,North,349,5.0,13.0,46,-99.99,,,0.00,422.459991,,2013-05-04 18:42:00,
2013-05-04 12:52:00,57.0,37.0,-100.00,North,349,5.0,13.0,46,-99.99,,,0.00,422.459991,,2013-05-04 18:52:00,
2013-05-04 13:01:00,57.0,37.0,-100.00,North,349,5.0,13.0,46,-99.99,,,0.00,422.459991,,2013-05-04 19:01:00,
2013-05-04 13:11:00,57.0,37.0,-100.00,North,349,5.0,13.0,46,-99.99,,,0.00,422.459991,,2013-05-04 19:11:00,
2013-05-04 13:42:00,55.0,36.0,-100.00,North,2,4.0,11.0,48,-99.99,,,0.00,172.820007,,2013-05-04 19:42:00,
2013-05-04 13:52:00,55.0,36.0,-100.00,North,2,4.0,11.0,48,-99.99,,,0.00,172.820007,,2013-05-04 19:52:00,
2013-05-04 14:02:00,55.0,36.0,-100.00,North,2,4.0,11.0,48,-99.99,,,0.00,172.820007,,2013-05-04 20:02:00,
2013-05-04 14:11:00,55.0,36.0,-100.00,North,2,4.0,11.0,48,-99.99,,,0.00,172.820007,,2013-05-04 20:11:00,
2013-05-04 14:42:00,56.0,33.0,-100.00,NE,37,1.0,5.0,42,-99.99,,,0.00,94.489998,,2013-05-04 20:42:00,
2013-05-04 14:52:00,56.0,33.0,-100.00,NE,37,1.0,5.0,42,-99.99,,,0.00,94.489998,,2013-05-04 20:52:00,
2013-05-04 15:01:00,56.0,33.0,-100.00,NE,37,1.0,5.0,42,-99.99,,,0.00,94.489998,,2013-05-04 21:01:00,
2013-05-04 15:11:00,56.0,33.0,-100.00,NE,37,1.0,5.0,42,-99.99,,,0.00,94.489998,,2013-05-04 21:11:00,
2013-05-04 15:43:00,57.0,36.0,-100.00,North,355,4.0,11.0,45,-99.99,,,0.00,215.820007,,2013-05-04 21:43:00,
2013-05-04 15:53:00,57.0,36.0,-100.00,North,355,4.0,11.0,45,-99.99,,,0.00,215.820007,,2013-05-04 21:53:00,
2013-05-04 16:02:00,57.0,36.0,-100.00,North,355,4.0,11.0,45,-99.99,,,0.00,215.820007,,2013-05-04 22:02:00,
2013-05-04 16:12:00,57.0,36.0,-100.00,North,355,4.0,11.0,45,-99.99,,,0.00,215.820007,,2013-05-04 22:12:00,
2013-05-04 16:42:00,57.0,33.0,-100.00,NE,38,5.0,12.0,40,-99.99,,,-99.99,228.259995,,2013-05-04 22:42:00,
2013-05-04 16:52:00,57.0,33.0,-100.00,NE,38,5.0,12.0,40,-99.99,,,-99.99,228.259995,,2013-05-04 22:52:00,
2013-05-04 17:02:00,57.0,33.0,-100.00,NE,38,5.0,12.0,40,-99.99,,,-99.99,228.259995,,2013-05-04 23:02:00,
2013-05-04 17:11:00,57.0,33.0,-100.00,NE,38,5.0,12.0,40,-99.99,,,-99.99,228.259995,,2013-05-04 23:11:00,
2013-05-04 17:42:00,63.0,36.0,-100.00,North,358,5.0,11.0,37,-99.99,,,-99.99,713.820007,,2013-05-04 23:42:00,
2013-05-04 17:52:00,63.0,36.0,-100.00,North,358,5.0,11.0,37,-99.99,,,-99.99,713.820007,,2013-05-04 23:52:00,
2013-05-04 18:01:00,63.0,36.0,-100.00,North,358,5.0,11.0,37,-99.99,,,-99.99,713.820007,,2013-05-05 00:01:00,
2013-05-04 18:11:00,63.0,36.0,-100.00,North,358,5.0,11.0,37,-99.99,,,-99.99,713.820007,,2013-05-05 00:11:00,
2013-05-04 19:42:00,56.0,36.0,-100.00,North,3,3.0,7.0,46,-99.99,,,0.00,87.629997,,2013-05-05 01:42:00,
2013-05-04 19:52:00,56.0,36.0,-100.00,North,3,3.0,7.0,46,-99.99,,,0.00,87.629997,,2013-05-05 01:52:00,
2013-05-04 20:02:00,56.0,36.0,-100.00,North,3,3.0,7.0,46,-99.99,,,0.00,87.629997,,2013-05-05 02:02:00,
2013-05-04 20:11:00,56.0,36.0,-100.00,North,3,3.0,7.0,46,-99.99,,,0.00,87.629997,,2013-05-05 02:11:00,
2013-05-04 20:42:00,54.0,36.0,-100.00,NNE,23,2.0,5.0,50,-99.99,,,0.00,26.270000,,2013-05-05 02:42:00,
2013-05-04 20:52:00,54.0,36.0,-100.00,NNE,23,2.0,5.0,50,-99.99,,,0.00,26.270000,,2013-05-05 02:52:00,
2013-05-04 21:01:00,54.0,36.0,-100.00,NNE,23,2.0,5.0,50,-99.99,,,0.00,26.270000,,2013-05-05 03:01:00,
2013-05-04 21:11:00,54.0,36.0,-100.00,NNE,23,2.0,5.0,50,-99.99,,,0.00,26.270000,,2013-05-05 03:11:00,
2013-05-04 21:42:00,49.0,36.0,-100.00,WNW,287,3.0,6.0,59,-99.99,,,0.00,0.700000,,2013-05-05 03:42:00,
2013-05-04 21:53:00,49.0,36.0,-100.00,WNW,287,3.0,6.0,59,-99.99,,,0.00,0.700000,,2013-05-05 03:53:00,
2013-05-04 22:02:00,49.0,36.0,-100.00,WNW,287,3.0,6.0,59,-99.99,,,0.00,0.700000,,2013-05-05 04:02:00,
2013-05-04 22:12:00,49.0,36.0,-100.00,WNW,287,3.0,6.0,59,-99.99,,,0.00,0.700000,,2013-05-05 04:12:00,
2013-05-04 22:43:00,51.0,35.0,-100.00,NNW,347,2.0,8.0,54,-99.99,,,0.00,0.000000,,2013-05-05 04:43:00,
2013-05-04 22:52:00,51.0,35.0,-100.00,NNW,347,2.0,8.0,54,-99.99,,,0.00,0.000000,,2013-05-05 04:52:00,
2013-05-04 23:02:00,51.0,35.0,-100.00,NNW,347,2.0,8.0,54,-99.99,,,0.00,0.000000,,2013-05-05 05:02:00,
2013-05-04 23:12:00,51.0,35.0,-100.00,NNW,347,2.0,8.0,54,-99.99,,,0.00,0.000000,,2013-05-05 05:12:00,
2013-05-04 23:42:00,48.0,36.0,-100.00,North,356,3.0,7.0,61,-99.99,,,0.00,0.000000,,2013-05-05 05:42:00,
2013-05-04 23:52:00,48.0,36.0,-100.00,North,356,3.0,7.0,61,-99.99,,,0.00,0.000000,,2013-05-05 05:52:00,